Weather History for Oshkosh, WI

Change the Weather History Date:

Wednesday, November 21, 2012

  Actual Average Record
Temperature  
Mean Temperature 42 °F -  
Max Temperature 55 °F 39 °F 58 °F (1982)
Min Temperature 30 °F 24 °F 1 °F (2014)
Degree Days  
Heating Degree Days 22    
Moisture  
Dew Point 36 °F    
Average Humidity 87    
Maximum Humidity 100    
Minimum Humidity 60    
Precipitation  
Precipitation 0.00 in - - ()
Sea Level Pressure  
Sea Level Pressure 30.10 in    
Wind  
Wind Speed 7 mph (SSW)    
Max Wind Speed 18 mph    
Max Gust Speed 28 mph    
Visibility 3 miles    
Events Fog    
Averages and records for this station are not official NWS values.
T = Trace of Precipitation, MM = Missing Value Source: NWS Daily Summary

Daily Weather History Graph

Daily Weather History Graph

Search for Another Location

Airport:

Trip Planner

Search our weather history database for the weather conditions in past years. The results will help you decide how hot, cold, wet, or windy it might be!

Date:

Astronomy

Nov. 21, 2012 Rise Set
Actual Time 6:57 AM CST 4:22 PM CST
Civil Twilight 6:25 AM CST 4:54 PM CST
Nautical Twilight 5:50 AM CST 5:29 PM CST
Astronomical Twilight 5:16 AM CST 6:03 PM CST
Moon 12:50 PM CST (11/21) 12:03 AM CST (11/21)
Length of Visible Light 10h 28m
Length of Day
9h 25m
First Quarter, 62% of the Moon is Illuminated
Nov 21
First Quarter
Nov 28
Full
Dec 6
Last Quarter
Dec 13
New
Dec 19
First Quarter

Hourly Weather History & Observations

Time (CST) Temp. Windchill Dew Point Humidity Pressure Visibility Wind Dir Wind Speed Gust Speed Precip Events Conditions
12:53 AM 41.0 °F 39.0 °F 37.0 °F 86% 30.16 in 5.0 mi West 3.5 mph - N/A   Clear
1:53 AM 35.1 °F 32.2 °F 33.1 °F 92% 30.16 in 3.0 mi SSE 3.5 mph - N/A   Clear
2:01 AM 33.8 °F 30.8 °F 32.0 °F 93% 30.14 in 2.5 mi South 3.5 mph - N/A   Clear
2:25 AM 33.8 °F 29.6 °F 32.0 °F 93% 30.14 in 1.8 mi South 4.6 mph - N/A   Clear
2:53 AM 33.1 °F 30.0 °F 32.0 °F 96% 30.16 in 1.5 mi SSW 3.5 mph - N/A   Clear
3:30 AM 30.2 °F 24.3 °F 30.2 °F 100% 30.13 in 0.8 mi South 5.8 mph - N/A   Clear
3:48 AM 30.2 °F 22.6 °F 28.4 °F 93% 30.13 in 1.2 mi South 8.1 mph - N/A   Clear
3:53 AM 30.9 °F 25.2 °F 28.9 °F 92% 30.16 in 1.5 mi South 5.8 mph - N/A   Clear
3:59 AM 30.2 °F 25.4 °F 28.4 °F 93% 30.14 in 0.8 mi SSW 4.6 mph - N/A   Scattered Clouds
4:06 AM 30.2 °F 25.4 °F 30.2 °F 100% 30.14 in 0.2 mi SSW 4.6 mph - N/A Fog Light Freezing Fog
4:28 AM 30.2 °F 25.4 °F 30.2 °F 100% 30.14 in 0.2 mi SSW 4.6 mph - N/A Fog Light Freezing Fog
4:53 AM 32.0 °F 27.5 °F 32.0 °F 100% 30.17 in 0.2 mi SW 4.6 mph - N/A Fog Fog
5:27 AM 32.0 °F - 32.0 °F 100% 30.15 in 0.5 mi Calm Calm - N/A Fog Fog
5:35 AM 32.0 °F 26.4 °F 30.2 °F 93% 30.15 in 0.2 mi SSW 5.8 mph - N/A Fog Fog
5:49 AM 32.0 °F 26.4 °F 30.2 °F 93% 30.15 in 0.5 mi South 5.8 mph - N/A Fog Fog
5:53 AM 32.0 °F 27.5 °F 30.9 °F 96% 30.18 in 0.2 mi South 4.6 mph - N/A Fog Fog
6:45 AM 32.0 °F 25.6 °F 32.0 °F 100% 30.14 in 0.2 mi SSW 6.9 mph - N/A Fog Fog
6:53 AM 33.1 °F 27.7 °F 32.0 °F 96% 30.17 in 0.2 mi SSW 5.8 mph - N/A Fog Fog
7:10 AM 33.8 °F 28.6 °F 32.0 °F 93% 30.15 in 0.2 mi SSW 5.8 mph - N/A Fog Fog
7:53 AM 33.1 °F 26.9 °F 32.0 °F 96% 30.18 in 0.2 mi South 6.9 mph - N/A Fog Fog
8:27 AM 35.6 °F 29.9 °F 35.6 °F 100% 30.15 in 0.8 mi South 6.9 mph - N/A   Overcast
8:34 AM 37.4 °F 31.4 °F 35.6 °F 93% 30.14 in 1.5 mi South 8.1 mph - N/A   Mostly Cloudy
8:53 AM 37.9 °F 30.9 °F 37.0 °F 97% 30.17 in 1.8 mi South 10.4 mph - N/A   Partly Cloudy
9:13 AM 39.2 °F 32.5 °F 37.4 °F 93% 30.13 in 2.0 mi South 10.4 mph - N/A   Partly Cloudy
9:45 AM 42.8 °F 36.6 °F 41.0 °F 93% 30.13 in 3.0 mi South 11.5 mph - N/A   Partly Cloudy
9:53 AM 43.0 °F 36.4 °F 41.0 °F 93% 30.15 in 4.0 mi SSW 12.7 mph - N/A   Clear
10:53 AM 48.9 °F - 42.1 °F 77% 30.13 in 5.0 mi SSW 10.4 mph - N/A   Haze
11:53 AM 53.1 °F - 42.1 °F 66% 30.09 in 7.0 mi SSW 17.3 mph 20.7 mph N/A   Clear
12:53 PM 55.9 °F - 42.1 °F 60% 30.05 in 10.0 mi South 16.1 mph - N/A   Clear
2:53 PM 55.0 °F - 42.1 °F 62% 30.02 in 10.0 mi SSW 16.1 mph 24.2 mph N/A   Clear
3:53 PM 52.0 °F - 41.0 °F 66% 30.01 in 8.0 mi South 13.8 mph - N/A   Clear
4:53 PM 51.1 °F - 41.0 °F 68% 30.01 in 8.0 mi South 16.1 mph 25.3 mph N/A   Clear
5:53 PM 51.1 °F - 42.1 °F 71% 30.00 in 8.0 mi SSW 17.3 mph 26.5 mph N/A   Clear
6:53 PM 51.1 °F - 42.1 °F 71% 29.99 in 8.0 mi SSW 17.3 mph 25.3 mph N/A   Clear
7:53 PM 51.1 °F - 42.1 °F 71% 29.99 in 8.0 mi SSW 18.4 mph 26.5 mph N/A   Clear
8:53 PM 48.9 °F - 41.0 °F 74% 29.98 in 8.0 mi SSW 18.4 mph 26.5 mph N/A   Clear
9:53 PM 48.9 °F - 42.1 °F 77% 29.97 in 7.0 mi SSW 17.3 mph 25.3 mph N/A   Clear
10:53 PM 48.0 °F - 42.1 °F 80% 29.96 in 7.0 mi SSW 17.3 mph 27.6 mph N/A   Clear
11:53 PM 46.9 °F - 42.1 °F 83% 29.96 in 6.0 mi SSW 15.0 mph 24.2 mph N/A   Haze